Theta_e
314 314 320 323 324 325 326 331 332 335 337 326 322 322 318 320 323 322 322 321 321 322 322 320 320 320 319 320 320 321 323 324 325 322 326 333 328 324 325 327 332 332 336 340 338 333 332 335 336 339 340 342 342 342 342 342 343 343 342 342 341 341 341 340 340 338 335 336 335 332 334 336 337 337 337 337 335 335 334 332 333 335 337 338 338 338 339 339 339 338 336 334 331 329 327 326 326
316 319 322 323 324 323 329 338 335 336 335 320 316 319 317 323 324 320 324 323 324 323 324 323 321 322 320 320 319 320 319 320 324 322 326 329 325 325 326 330 333 331 335 339 339 334 332 335 335 338 339 341 342 340 341 342 342 342 342 341 340 341 341 341 339 336 336 336 336 335 334 334 335 336 335 335 335 335 335 333 333 335 337 338 338 339 339 339 338 337 335 334 332 329 327 326 327
321 322 323 322 324 325 338 342 336 336 327 315 316 321 320 321 323 322 326 324 325 323 323 322 320 322 320 321 319 319 320 318 323 331 331 326 326 326 326 332 333 331 334 337 339 336 332 334 334 336 339 340 340 339 340 340 341 341 342 341 340 341 340 340 338 336 336 336 337 337 336 335 335 335 335 335 334 335 334 333 333 335 337 338 338 338 339 338 337 335 333 332 331 330 328 327 328
322 325 323 323 329 335 347 338 338 339 322 318 317 321 326 322 323 324 325 323 323 321 322 321 320 320 319 321 320 317 321 318 320 333 332 324 326 325 325 331 333 333 334 337 339 337 333 333 333 334 338 340 339 339 339 339 339 340 341 340 340 339 339 339 337 336 336 336 337 338 337 336 336 336 336 336 336 334 333 332 333 335 337 337 338 338 338 337 335 334 332 331 330 330 329 329 330
323 325 322 323 330 333 339 331 336 335 321 325 319 319 329 325 324 322 322 322 321 321 322 323 320 320 318 320 320 319 320 318 317 324 326 323 325 324 326 330 334 335 335 337 337 338 334 332 333 333 336 339 339 339 339 339 339 340 339 339 340 338 338 338 336 337 336 337 338 338 338 336 337 337 336 336 337 334 332 332 332 335 337 337 337 338 337 336 334 332 331 330 329 327 329 331 327
323 324 322 321 320 323 335 327 325 329 328 333 322 319 326 324 323 321 321 321 321 321 321 322 320 320 320 321 319 318 320 318 319 323 324 322 321 323 327 328 333 336 336 337 337 338 334 332 333 333 336 337 339 339 337 338 339 339 338 339 340 338 338 338 336 336 336 337 338 338 338 337 337 338 337 336 337 335 332 332 334 334 336 337 337 337 336 335 333 332 330 330 328 325 326 326 314
322 324 327 328 322 326 338 326 324 330 326 327 324 321 322 323 323 321 321 320 321 321 320 321 320 319 320 321 317 317 319 318 320 323 321 320 319 321 325 326 331 335 336 337 339 338 335 333 332 334 336 336 338 338 336 336 337 338 337 338 339 337 338 338 336 335 336 338 338 337 337 337 338 338 338 337 337 335 333 332 334 335 336 336 336 336 335 333 332 331 329 329 328 323 318 311 301
323 322 330 339 334 335 336 327 330 332 320 318 323 322 322 324 324 322 322 320 320 321 322 322 319 319 319 319 319 319 319 320 321 320 319 319 317 319 323 325 329 333 335 337 339 340 336 333 331 333 335 335 336 336 337 336 336 336 336 337 337 336 337 337 336 335 337 338 338 336 336 337 338 338 338 338 337 335 334 332 333 336 336 336 335 335 333 333 331 329 328 328 325 315 306 301 298
322 320 328 337 335 338 336 327 326 324 322 320 318 321 322 322 324 322 322 320 320 322 323 322 319 319 319 319 323 320 318 321 320 318 317 317 317 318 322 323 325 329 334 337 339 340 337 334 332 332 334 335 336 336 337 336 335 335 335 335 334 334 336 337 336 336 337 338 337 336 336 337 337 338 338 338 337 335 334 332 332 334 335 335 335 334 333 332 330 329 327 327 323 308 300 299 299
324 322 327 335 335 336 329 326 326 320 322 324 318 320 320 320 323 322 322 320 318 320 320 319 318 319 319 319 323 320 318 321 317 317 317 317 318 317 321 323 324 326 331 337 339 339 339 336 333 332 333 334 336 336 336 336 336 335 335 335 333 333 335 336 336 336 337 336 336 336 336 336 337 338 338 338 337 335 334 332 332 332 333 333 332 332 332 331 330 329 327 328 322 304 299 299 298
335 333 336 340 333 327 321 323 330 327 325 324 320 321 321 320 322 321 320 318 316 318 318 317 318 320 319 320 324 320 319 321 317 316 316 317 318 316 320 323 327 328 328 333 337 339 339 338 334 332 332 333 335 336 336 336 336 336 336 336 334 333 335 335 336 336 336 335 334 335 336 337 337 338 338 338 337 335 334 333 332 332 332 332 331 331 331 330 329 328 328 328 317 300 299 298 298
336 338 348 344 326 322 323 325 328 335 333 323 320 321 320 319 321 319 318 317 317 319 318 318 318 318 318 322 324 318 318 321 317 316 316 316 316 316 319 322 328 332 332 332 335 338 340 339 337 334 333 333 335 336 336 336 336 337 336 336 335 334 334 335 335 335 334 334 335 334 335 337 337 337 338 338 337 336 334 334 333 332 332 331 331 330 329 328 328 327 327 325 313 299 299 298 298
332 332 344 332 323 324 322 324 327 334 335 323 319 320 317 317 319 318 318 318 318 318 318 319 317 317 318 321 323 321 320 319 317 317 315 315 316 317 321 323 325 331 335 334 334 336 339 340 338 337 335 334 335 336 336 336 336 337 336 336 336 335 334 335 334 334 333 334 335 334 334 336 336 337 338 338 337 336 335 334 333 332 332 332 331 329 327 327 327 326 325 323 314 301 298 298 298
326 332 337 321 324 329 321 323 325 325 324 323 322 320 319 316 319 320 318 318 319 319 316 319 317 316 318 317 327 331 323 318 318 319 317 315 317 320 323 325 326 328 332 335 334 334 337 339 340 339 337 336 335 336 336 336 336 336 336 336 336 335 335 335 334 333 333 334 335 334 335 335 336 337 337 338 337 336 335 334 333 333 332 331 329 327 326 326 326 325 324 322 314 302 297 298 298
323 340 343 326 328 329 322 321 324 324 318 324 321 317 319 316 318 319 318 318 319 319 314 316 315 316 317 315 324 328 319 318 320 321 318 315 319 323 325 327 329 329 331 334 335 334 335 338 340 339 339 338 337 336 336 336 336 336 336 336 336 335 335 335 334 334 335 335 335 334 335 335 336 337 337 337 337 336 335 334 334 333 332 329 328 327 326 325 325 325 324 320 312 300 297 298 298
329 345 341 327 326 323 321 321 326 328 318 324 321 316 319 316 317 317 317 317 317 318 315 317 315 315 318 316 318 317 315 318 320 321 319 317 321 324 325 326 328 331 332 335 335 334 335 336 339 339 339 339 338 337 337 337 337 337 337 337 336 335 335 336 336 335 335 336 336 335 335 335 336 338 337 337 337 336 335 334 334 333 331 328 326 327 325 325 324 324 323 319 309 299 298 298 298
338 345 336 327 325 322 325 323 323 323 319 326 323 317 318 318 318 316 315 316 318 318 316 319 316 314 318 317 315 313 315 318 320 320 319 320 322 324 325 326 327 328 330 333 334 335 335 336 336 337 338 338 339 338 338 338 337 338 338 337 337 336 335 336 336 336 335 335 336 335 335 335 335 337 337 337 337 336 335 334 333 332 331 327 325 325 325 324 324 323 322 318 307 298 298 297 298
340 336 328 325 329 330 331 324 318 319 319 322 321 317 317 318 319 317 315 317 320 320 317 317 315 314 315 315 314 313 315 318 319 318 319 321 322 323 323 324 326 326 325 327 329 332 333 334 334 335 336 337 338 339 338 338 338 338 338 338 338 337 336 337 337 336 335 335 335 335 335 335 335 336 337 337 336 336 335 334 332 331 330 328 325 324 324 323 323 322 321 317 306 298 298 298 298
336 333 323 331 340 334 328 321 317 319 319 320 321 318 316 317 317 316 316 318 320 319 317 316 316 316 314 314 314 313 315 318 319 317 318 319 319 320 319 320 323 323 322 322 322 325 327 330 332 332 333 335 336 338 338 338 338 338 339 339 338 338 337 337 337 337 336 335 335 335 335 335 335 335 336 336 336 336 335 334 331 329 330 328 324 323 323 323 321 321 320 316 304 298 298 297 298
332 331 324 339 344 331 325 320 316 318 318 320 322 319 318 319 317 316 316 318 319 318 317 316 316 316 314 314 312 312 315 317 318 318 317 317 318 318 318 318 319 320 319 319 319 320 323 325 327 328 330 332 334 335 336 337 338 338 338 338 338 338 338 338 338 337 336 336 335 334 333 334 336 335 336 336 335 335 335 333 331 330 330 328 324 323 323 322 321 320 319 313 302 299 298 298 298
324 326 330 341 332 324 326 323 319 319 318 318 320 320 319 318 317 316 316 318 318 317 317 316 316 316 316 314 311 311 313 315 316 317 317 317 317 317 318 318 318 318 318 318 318 318 320 321 322 325 328 330 332 333 334 335 336 337 338 338 338 337 338 338 338 338 337 336 336 335 333 334 336 336 336 336 335 335 334 332 331 330 329 327 325 323 322 322 321 320 317 310 302 299 297 297 298
321 323 329 335 325 320 325 324 320 318 318 318 319 319 318 317 317 317 317 317 317 317 316 316 316 315 315 314 311 310 310 310 311 311 311 311 311 312 313 315 316 316 317 318 320 319 319 319 321 323 325 328 330 331 333 334 334 335 336 336 337 338 338 338 339 338 337 336 335 335 333 333 336 336 336 336 335 335 333 332 331 330 329 328 326 324 322 321 321 320 316 309 303 299 297 297 297
322 324 325 327 322 319 322 322 319 318 318 318 319 317 316 319 318 318 318 317 318 317 316 315 314 312 311 311 309 309 309 307 306 306 306 306 306 307 308 310 312 313 313 315 317 319 320 320 321 323 324 326 327 330 332 333 334 333 333 334 334 336 337 338 339 338 337 335 334 334 333 333 336 336 336 335 335 334 333 332 331 330 329 328 326 325 323 321 320 319 316 310 304 300 298 297 297
320 323 324 324 320 319 321 319 318 317 316 317 317 314 315 318 317 318 318 317 317 315 313 311 310 309 308 308 307 307 307 305 305 305 305 305 305 305 306 308 309 311 312 313 314 316 318 321 323 323 324 325 326 329 331 332 333 333 333 332 332 333 336 337 338 337 336 334 333 332 331 333 335 335 335 335 334 333 332 332 331 330 329 328 326 325 324 322 320 318 316 312 305 301 298 297 297
320 323 322 320 319 319 320 317 317 317 315 315 314 314 315 315 316 316 316 316 316 314 312 311 310 308 306 305 305 304 304 304 304 305 304 304 304 305 306 306 308 310 311 312 313 314 316 319 322 324 324 324 325 328 329 331 332 334 334 333 332 333 335 336 336 337 335 334 333 330 329 333 334 333 334 334 334 333 332 331 330 330 328 327 326 324 324 322 320 318 317 314 308 303 299 297 298
318 319 318 317 317 317 317 316 316 316 315 313 313 316 315 314 315 315 317 317 314 314 314 314 313 310 305 304 304 303 303 303 303 303 303 303 303 305 305 306 307 308 309 311 313 314 316 317 321 324 325 325 325 327 328 329 331 333 333 333 333 333 333 334 334 334 333 333 333 330 329 332 334 333 333 334 333 332 332 331 330 329 328 326 325 324 324 322 320 318 317 316 311 305 300 297 298
315 315 316 316 316 315 315 315 315 313 313 313 313 315 314 313 314 315 319 318 313 315 317 315 313 310 305 303 303 302 302 301 302 302 302 302 302 303 303 305 306 307 308 311 313 315 316 317 320 324 326 326 326 327 327 329 331 332 333 333 333 333 333 333 333 333 333 332 332 330 329 330 333 333 334 334 333 332 332 331 329 328 327 326 325 324 324 322 320 318 316 315 312 307 301 297 297
313 314 315 317 316 316 315 314 314 313 314 315 315 315 314 312 314 317 318 317 313 314 316 313 310 307 303 302 302 301 301 301 301 301 301 301 301 301 302 303 304 306 308 310 313 315 317 317 318 322 326 328 327 327 328 329 330 331 333 333 333 333 333 333 334 333 333 332 332 331 330 330 330 331 332 333 333 332 332 330 329 327 326 325 325 324 323 322 320 318 316 316 314 310 306 301 298
314 313 315 318 318 317 317 315 314 313 314 316 316 316 317 314 315 319 317 315 315 314 312 309 305 304 303 302 301 300 300 300 300 300 300 300 300 301 301 302 303 305 307 310 313 315 317 319 319 321 324 327 328 328 329 329 330 331 332 333 333 333 332 333 333 333 332 332 332 332 332 331 331 331 331 332 332 332 331 330 329 327 326 325 324 324 323 322 320 318 317 317 317 313 311 306 300
315 314 313 317 318 320 319 315 313 312 314 315 314 316 323 321 317 319 317 314 316 315 310 305 304 304 303 302 301 301 300 300 300 299 300 300 300 300 300 302 303 305 307 310 312 313 316 318 320 321 324 327 328 329 329 330 331 331 332 332 332 332 332 332 332 332 332 332 332 331 331 331 331 331 331 332 332 332 331 330 329 327 326 325 324 324 323 321 319 318 317 318 318 315 313 308 302
315 312 316 318 316 324 325 315 315 315 314 314 313 317 324 323 318 318 316 313 314 314 310 305 304 303 302 302 301 300 300 299 299 299 299 299 299 300 300 301 303 305 307 309 310 311 313 316 319 321 323 325 327 327 328 329 329 330 331 331 331 331 330 331 331 331 331 331 331 331 330 330 330 330 331 331 331 331 330 329 328 327 326 325 324 323 322 321 319 317 317 317 317 315 313 307 302
320 314 325 327 316 323 326 316 317 317 314 312 313 318 320 318 320 318 314 312 313 313 310 305 304 303 302 302 301 300 300 299 299 299 299 299 298 299 299 300 302 304 306 307 308 309 312 314 316 318 320 323 324 325 326 327 328 328 329 329 329 329 329 329 329 329 329 329 330 330 330 330 330 330 330 330 330 330 329 329 328 327 326 325 324 323 321 320 318 316 316 316 316 315 312 305 301
328 318 324 330 319 319 322 319 319 316 314 313 312 318 319 318 321 319 313 312 314 314 309 304 303 303 302 301 300 300 299 298 298 298 298 298 298 298 298 299 300 302 304 306 308 309 311 313 315 316 318 320 321 322 323 324 325 326 326 327 327 327 327 328 328 328 328 327 328 328 328 329 329 329 329 329 329 329 329 328 328 327 326 325 323 322 321 319 318 316 316 315 315 314 311 305 302
331 323 319 325 321 317 320 323 320 313 314 314 313 315 316 317 319 317 312 311 315 315 309 304 303 302 301 301 300 299 298 298 298 297 297 298 298 298 298 298 299 301 303 305 306 308 310 312 314 315 316 317 318 319 320 321 322 323 324 324 325 325 325 326 326 326 326 326 327 326 326 327 327 328 328 328 328 328 328 327 327 326 325 324 323 322 320 319 317 317 316 315 314 313 311 307 303
329 325 321 323 322 318 319 322 319 314 315 316 316 315 316 317 316 315 311 311 317 313 306 304 303 302 301 300 299 299 298 298 297 297 297 297 297 297 297 298 299 300 301 303 305 306 308 310 312 313 314 314 315 316 317 318 319 320 320 321 321 321 321 322 323 323 323 323 323 323 324 324 325 326 326 326 326 326 326 326 326 325 324 324 323 321 320 319 317 317 316 314 313 311 309 307 303
324 323 322 322 322 321 319 318 319 316 315 318 319 317 318 318 318 316 311 312 316 309 304 304 303 301 301 300 299 299 298 297 297 296 296 296 297 297 297 297 298 299 300 302 304 305 306 308 310 311 312 313 314 314 314 315 316 317 317 318 317 317 317 318 318 318 319 319 319 319 320 320 322 322 323 323 323 323 323 324 324 324 323 322 322 321 320 320 319 317 316 314 312 310 307 304 301
317 318 319 320 320 320 317 317 319 316 315 321 321 317 318 318 319 315 310 313 316 309 306 304 302 302 300 300 299 298 298 297 296 296 296 296 296 296 296 297 297 298 299 300 302 303 304 305 307 307 308 310 311 312 312 313 314 314 314 314 314 313 314 314 314 314 314 315 315 315 315 316 316 317 318 318 318 319 320 320 320 320 321 321 321 321 320 320 319 317 315 313 311 309 306 303 300
314 316 317 318 318 318 316 317 320 315 315 322 320 315 318 319 317 313 312 316 315 309 306 303 302 302 300 300 299 298 298 297 296 295 295 295 295 296 296 296 296 297 297 298 299 301 302 304 304 305 306 307 308 308 309 310 310 310 310 310 311 310 310 310 310 310 310 310 310 310 310 311 312 313 313 313 313 314 315 316 316 317 317 317 317 317 317 317 317 316 313 311 309 307 305 303 300
315 316 316 319 320 319 319 321 320 314 314 322 319 314 318 320 315 312 312 313 309 306 305 303 302 301 300 299 298 298 297 297 296 295 294 295 295 295 295 295 295 295 296 297 298 300 301 302 303 304 305 305 306 306 307 307 307 308 308 308 308 308 307 307 306 305 305 305 304 304 305 306 307 308 309 309 310 310 310 311 312 312 313 313 314 313 313 313 314 313 312 310 308 305 303 301 300
318 318 318 320 320 319 323 324 321 316 314 317 316 315 318 318 314 311 307 306 305 304 303 303 302 300 300 299 298 298 297 297 296 295 294 294 294 294 294 294 294 295 295 296 297 298 299 300 301 302 303 304 304 305 305 305 305 306 306 306 306 305 305 304 304 303 303 303 302 302 302 302 303 303 304 305 306 307 307 308 308 309 309 309 310 310 310 310 310 310 309 309 307 303 302 301 300
322 323 319 320 320 320 322 322 320 320 321 318 314 319 324 321 316 313 307 305 304 302 302 302 301 300 300 299 298 298 297 296 296 295 294 293 293 293 293 293 293 293 294 294 294 295 296 297 299 300 301 302 303 304 304 305 305 305 305 304 304 303 303 302 302 302 302 302 302 302 302 301 301 301 301 302 302 303 304 305 305 306 306 306 307 307 307 308 308 308 307 307 305 303 302 301 300
324 326 322 319 319 320 321 319 318 322 326 321 313 321 332 328 322 315 308 306 305 303 302 301 301 300 299 298 298 297 297 296 295 295 294 293 293 293 292 292 293 293 293 293 293 293 294 295 296 298 299 300 301 302 303 304 304 303 303 302 301 300 299 298 298 299 300 301 301 302 302 301 301 301 300 300 300 300 301 302 302 303 303 304 304 304 304 305 305 306 306 306 305 304 302 300 299
322 324 323 321 319 320 321 319 319 324 327 319 313 320 327 324 323 319 309 307 306 303 303 301 300 300 299 299 298 297 297 296 295 294 293 292 292 292 292 292 292 292 292 293 293 293 293 294 295 296 297 298 299 300 301 302 301 301 300 299 298 297 296 296 297 298 299 299 300 300 301 301 301 301 300 300 300 299 299 299 300 300 300 301 301 302 302 303 302 303 303 303 303 303 302 299 298
325 323 322 324 321 320 323 320 320 324 322 321 322 320 319 319 322 318 309 308 307 303 303 301 300 300 298 298 298 297 297 297 296 295 293 292 292 292 291 291 291 292 292 292 293 293 292 293 293 294 295 296 297 298 298 299 298 298 297 296 296 295 295 295 296 297 297 298 298 298 299 299 299 300 300 300 299 299 299 299 299 299 299 299 299 299 300 300 300 301 301 300 300 300 300 298 298
325 320 318 321 320 321 327 324 322 322 317 321 326 318 317 322 325 318 309 310 309 304 303 301 300 299 298 298 298 297 297 296 295 295 293 292 292 292 291 291 291 291 292 292 292 292 292 292 292 293 293 293 294 296 296 296 296 296 295 295 294 294 294 294 295 296 296 296 296 296 296 297 297 298 298 298 298 298 299 299 299 298 298 298 298 298 298 298 298 299 299 299 299 299 298 298 297
319 318 320 324 323 323 328 326 324 324 319 320 322 318 318 323 327 323 315 314 312 306 302 301 300 299 298 298 298 297 297 296 295 293 293 292 292 292 291 291 291 290 291 291 291 291 291 291 292 292 291 291 292 293 294 294 295 295 294 294 293 293 293 293 294 294 293 293 293 293 294 294 295 295 295 295 296 297 297 298 298 298 298 298 298 297 297 297 297 297 297 298 298 298 298 298 297
315 319 325 329 328 326 328 327 324 323 321 321 322 319 317 320 328 327 317 313 310 305 302 301 300 299 298 298 298 297 297 297 296 293 292 293 292 292 291 290 290 290 290 290 290 290 290 290 290 290 290 290 291 292 292 293 293 293 292 292 291 291 291 292 291 291 290 290 290 290 290 291 291 292 292 293 293 294 295 296 297 298 298 298 297 297 297 296 296 296 296 296 297 297 297 297 297
318 323 325 326 328 328 328 327 324 321 322 325 324 318 314 319 326 320 309 305 305 305 303 300 300 299 298 298 298 297 297 297 297 295 293 292 292 292 291 290 289 289 289 289 290 289 289 289 289 289 288 288 289 289 290 290 290 290 289 289 289 288 288 288 288 287 287 287 287 287 287 288 288 288 289 290 290 291 292 293 295 295 296 296 296 296 295 295 295 295 295 296 296 296 296 297 297
320 322 323 324 324 324 325 324 323 322 323 323 319 316 315 318 318 310 303 302 303 305 303 300 299 298 297 298 297 297 297 297 297 297 294 292 292 292 291 290 289 288 288 288 289 289 288 288 288 288 287 287 287 287 288 288 287 287 287 287 287 286 286 286 286 285 285 285 285 286 286 286 286 286 286 286 287 288 289 290 291 292 293 293 293 294 294 294 294 294 294 294 294 295 295 295 295
317 318 322 325 322 321 325 324 320 321 324 320 315 314 319 322 315 305 301 300 300 302 302 299 298 297 297 297 297 297 297 297 297 297 294 292 292 292 291 290 289 288 288 288 288 288 288 287 287 287 286 286 286 286 286 286 286 286 286 286 286 286 286 285 285 285 285 285 285 285 285 285 285 285 285 285 285 286 286 287 287 288 289 289 290 291 292 293 293 293 293 293 293 294 294 294 294
314 319 320 322 325 325 327 325 323 326 327 320 314 316 324 326 313 302 299 298 298 299 299 298 298 297 297 297 297 297 297 296 297 296 294 292 293 292 291 290 289 287 287 287 287 287 287 287 286 286 286 286 286 286 286 286 286 286 286 286 286 286 286 286 285 285 285 286 285 285 285 285 285 285 285 285 285 286 286 286 286 286 286 286 287 288 289 290 291 292 293 293 293 293 293 293 293
314 317 317 319 324 324 323 325 325 326 325 320 318 321 320 314 305 299 299 298 297 298 297 297 297 296 297 297 297 297 297 296 296 296 294 292 292 292 291 290 288 287 287 287 287 287 287 287 287 287 287 286 287 286 286 286 286 286 286 286 286 286 286 286 286 286 286 286 286 285 285 285 285 285 285 286 285 286 286 286 286 286 286 286 286 286 286 287 288 289 290 291 291 292 292 292 292
316 314 318 321 321 321 323 324 321 319 321 321 322 321 313 309 306 301 299 299 297 297 296 296 296 296 297 297 297 297 297 296 296 295 293 291 292 292 291 290 289 288 288 288 287 287 287 287 287 287 287 287 287 287 286 286 286 286 286 286 286 286 286 286 286 286 286 286 286 286 286 286 285 285 285 285 286 286 286 286 286 286 286 286 286 286 286 286 286 286 286 287 288 289 290 291 291
318 318 320 319 318 320 324 325 322 319 321 322 322 322 317 316 314 303 298 300 298 297 297 296 296 297 297 297 297 297 296 296 296 294 292 291 292 292 291 291 290 289 289 288 288 287 287 287 287 287 287 287 287 287 286 286 286 286 286 286 286 285 285 286 286 286 285 285 285 285 285 285 285 285 285 285 285 285 285 285 285 285 285 285 286 286 285 285 286 286 285 285 286 286 287 288 289
318 321 319 317 320 323 322 322 322 321 321 322 324 322 319 320 316 307 303 302 299 297 297 296 297 296 296 296 297 296 296 296 296 294 292 291 292 292 292 291 291 290 289 289 288 287 287 287 287 287 287 287 287 286 286 286 286 286 286 286 285 285 285 285 285 285 285 285 285 284 284 285 284 285 285 285 285 285 285 285 285 285 285 285 285 285 285 285 285 285 285 285 285 285 285 285 286
314 316 315 317 320 323 322 320 322 323 320 321 323 321 323 325 319 314 310 302 298 298 297 296 296 296 295 296 296 296 296 295 295 295 292 290 291 293 292 292 291 290 289 288 288 287 287 287 287 287 286 286 286 286 286 286 286 286 286 286 285 285 285 284 284 284 284 284 284 284 284 284 284 284 284 284 284 285 285 285 285 285 285 285 285 285 285 285 285 285 285 285 285 285 285 285 285
314 315 315 316 316 319 321 317 319 323 320 321 320 318 325 325 313 311 310 302 298 298 297 296 296 295 296 296 295 295 295 294 294 295 292 290 291 292 292 292 292 290 289 288 288 288 288 287 287 287 287 286 286 286 286 286 286 286 285 285 285 285 285 285 284 284 284 284 284 283 283 283 283 283 284 284 284 284 284 284 284 285 285 285 285 285 285 284 284 284 284 285 285 285 285 285 285
319 320 319 320 318 318 320 317 317 318 317 321 320 317 323 319 307 307 308 303 300 298 297 297 296 296 296 296 295 295 294 294 295 294 291 289 290 292 292 292 291 291 289 289 288 288 288 288 288 287 287 287 286 286 286 286 286 286 285 285 285 285 285 285 284 284 284 284 283 283 283 283 283 283 283 283 283 283 283 283 283 284 284 284 284 284 284 284 284 284 284 284 284 284 284 284 284
Wind_Speed
8 8 7 7 9 8 4 4 3 2 4 3 2 1 1 2 1 2 1 2 1 3 4 2 1 3 1 2 5 5 4 5 4 3 2 4 3 11 17 15 9 12 19 20 25 28 29 28 27 25 23 23 23 22 22 21 20 19 18 17 16 14 12 11 10 10 10 10 9 9 10 10 10 9 8 7 8 8 8 8 8 9 7 5 6 7 7 7 7 6 4 4 5 7 7 7 7
7 6 5 6 7 4 1 3 4 3 5 3 2 1 2 3 3 3 4 3 3 4 2 2 0 2 2 2 3 2 2 5 5 3 2 1 4 12 17 14 10 13 18 19 23 27 29 28 27 26 24 24 24 24 23 22 21 20 19 17 16 15 14 12 11 11 11 11 9 9 9 10 10 9 9 7 7 7 7 7 7 7 6 6 7 8 8 6 6 4 2 3 5 6 6 5 4
7 6 6 5 4 3 1 4 4 2 5 3 2 3 1 2 1 5 7 6 7 3 1 1 1 1 4 4 1 3 3 4 3 2 0 4 5 10 17 13 10 13 16 18 21 27 29 28 27 27 25 24 25 25 24 23 22 21 20 18 17 16 15 14 13 13 12 12 10 9 8 8 8 8 8 7 6 6 6 7 7 6 6 6 7 8 7 6 5 3 2 3 5 6 5 4 3
7 7 8 5 2 3 4 4 3 4 4 2 1 4 3 3 4 6 7 6 6 2 2 1 1 1 2 2 1 1 3 3 3 3 1 7 6 8 17 13 10 15 17 18 20 25 29 28 28 27 26 25 24 24 24 24 23 22 21 19 18 17 16 15 14 15 14 13 11 10 10 8 8 7 7 7 6 5 6 7 7 6 6 7 7 7 7 5 4 2 1 0 4 6 6 5 3
7 6 6 3 3 2 3 3 2 4 3 4 2 4 5 6 4 4 5 5 4 1 1 2 1 2 1 2 2 1 3 2 3 5 4 9 8 8 15 13 13 16 18 18 19 23 27 29 28 27 27 26 24 24 24 23 22 21 22 20 19 18 17 16 15 16 15 14 12 11 10 9 9 9 8 7 7 6 6 7 8 7 6 7 7 7 6 4 2 2 1 1 2 4 5 4 3
7 5 4 4 2 1 3 3 2 0 5 5 4 5 6 6 4 2 3 5 3 1 1 2 0 1 1 3 2 3 3 1 2 6 6 9 9 9 13 14 15 17 18 18 19 21 25 29 29 28 27 26 24 23 24 23 21 20 21 20 18 19 17 16 16 16 16 14 13 12 11 10 10 10 9 9 8 6 7 8 8 7 6 6 7 6 4 3 2 2 2 2 2 4 4 4 2
8 5 3 4 2 2 5 3 2 2 3 4 5 5 6 7 5 4 4 3 2 3 0 1 1 2 1 3 1 2 1 3 3 4 6 9 10 10 13 14 15 17 17 18 18 18 22 28 29 28 28 27 25 24 24 24 22 20 21 18 17 18 17 17 17 17 16 15 13 13 12 12 12 11 10 10 9 8 7 8 8 7 7 7 6 5 4 3 1 1 1 1 2 3 2 2 2
6 3 1 4 2 3 5 2 3 2 1 2 4 5 7 7 5 4 2 0 1 2 2 2 1 2 3 4 1 3 0 5 5 6 8 9 10 11 14 15 15 17 17 18 18 17 19 26 29 29 28 27 26 25 25 24 23 21 21 19 17 18 17 16 17 17 16 15 14 13 13 13 13 12 12 11 10 9 8 8 9 9 8 7 7 6 5 2 1 1 2 2 3 2 0 2 4
4 2 1 3 2 3 3 1 2 2 3 4 1 3 4 5 3 4 2 1 1 1 3 4 1 1 4 5 3 5 2 4 7 8 9 8 10 11 14 14 13 16 17 17 17 17 18 23 28 29 28 28 27 26 25 25 24 23 22 20 19 19 18 17 16 16 16 15 15 14 14 13 13 13 14 13 12 10 10 9 9 9 9 8 8 7 6 5 4 5 5 4 5 3 1 4 6
3 3 2 3 3 4 4 2 2 1 5 4 2 3 3 2 3 4 3 2 1 0 5 3 1 2 3 3 4 3 2 4 7 9 9 9 9 10 13 14 13 14 16 17 17 17 17 21 26 28 29 28 27 26 26 25 25 24 22 21 21 20 19 19 18 17 16 16 15 15 14 13 13 14 15 14 13 12 11 10 10 10 9 9 9 8 8 7 8 8 7 8 7 3 3 5 6
3 4 3 4 4 3 1 2 4 4 6 5 3 5 4 2 4 3 2 2 1 1 3 2 1 3 2 3 4 3 2 6 7 7 8 9 9 9 11 14 14 14 15 16 17 17 17 19 23 26 28 28 28 27 26 26 26 24 22 21 21 21 21 21 20 19 19 17 16 16 15 14 14 14 15 14 14 14 12 11 11 10 9 10 10 9 7 7 9 8 7 9 6 3 4 5 6
3 4 3 5 2 1 2 3 5 5 6 4 2 5 2 2 4 1 0 1 2 4 2 1 1 1 2 4 4 4 3 8 7 5 7 9 8 8 11 14 15 15 15 15 16 17 17 18 21 24 27 28 29 28 27 27 26 26 24 22 21 21 21 21 21 21 20 19 18 18 17 16 15 15 16 15 15 14 13 12 11 10 10 9 8 7 6 6 6 7 8 9 5 3 4 6 6
3 1 4 3 2 2 2 2 4 3 5 2 3 4 1 3 0 4 4 1 0 4 3 6 3 2 1 4 4 5 4 9 8 6 8 8 8 9 11 13 15 16 16 16 16 16 17 18 20 23 25 27 28 29 28 28 28 27 26 24 22 22 22 22 21 21 21 20 19 19 18 17 16 15 17 17 16 15 13 12 11 11 10 8 6 5 7 7 6 8 10 9 5 3 4 6 6
2 2 4 2 1 0 2 1 3 2 2 4 3 4 2 1 3 5 4 2 3 2 3 5 5 3 2 3 5 4 3 7 9 8 8 8 9 10 12 13 14 15 16 17 17 17 18 18 20 22 24 26 28 29 29 29 28 28 27 26 25 24 23 22 22 21 21 20 20 20 19 19 17 16 17 18 17 17 14 13 12 11 10 8 7 7 9 9 8 11 11 10 7 4 5 6 6
3 2 4 3 2 3 1 1 1 4 1 4 3 2 2 2 2 1 1 0 5 4 1 1 4 2 2 1 4 5 3 5 9 10 10 10 10 10 11 13 14 14 16 18 18 18 19 19 21 22 24 26 28 29 30 30 29 29 29 27 26 25 24 23 23 22 22 21 20 20 20 19 18 17 18 19 18 17 15 14 13 12 10 7 8 11 11 10 10 13 11 10 8 6 7 7 7
3 3 5 3 1 2 1 1 2 3 2 5 3 1 2 4 2 0 3 3 3 3 0 3 3 2 4 5 7 7 6 5 9 11 11 11 11 11 11 13 14 15 16 18 19 19 19 20 21 22 24 26 28 29 30 30 30 30 29 28 28 27 26 25 24 23 23 22 21 21 21 20 19 18 19 20 20 18 16 16 14 12 10 7 10 14 13 12 12 14 13 11 8 8 9 8 8
3 4 4 2 1 1 3 2 2 1 4 5 6 2 2 5 3 2 1 4 4 5 2 5 3 1 5 5 5 7 8 5 10 11 11 11 11 12 12 13 15 16 17 19 20 20 21 21 22 22 24 26 27 29 30 30 30 30 30 29 29 28 28 27 25 25 24 23 22 22 22 22 21 20 20 21 21 19 17 17 15 13 10 9 13 14 14 13 13 14 13 11 10 10 9 9 8
4 3 3 0 2 3 4 4 3 1 3 5 5 1 3 3 4 3 3 4 5 7 7 4 4 5 8 11 10 10 8 6 10 12 12 12 11 12 14 15 16 17 18 19 20 21 22 23 23 23 24 25 27 28 30 30 30 30 30 30 29 29 29 28 27 26 25 24 23 23 23 23 22 21 22 22 22 21 19 18 16 13 12 11 13 15 15 13 14 15 14 13 12 11 10 10 9
3 3 2 2 5 5 5 5 4 1 2 5 5 2 3 3 2 2 3 5 6 8 11 6 5 8 7 13 12 8 6 8 10 13 13 14 14 14 16 17 18 18 18 19 19 20 22 23 24 25 25 25 26 28 30 30 30 30 30 30 30 30 29 28 28 27 25 24 24 23 23 23 23 23 23 23 23 22 20 18 16 14 14 13 13 15 15 14 15 15 13 14 14 12 12 11 11
2 4 1 5 6 4 5 5 5 5 3 3 5 2 2 4 2 1 2 5 6 6 10 7 9 10 4 7 7 5 5 9 12 14 16 17 18 18 18 19 20 21 20 18 17 19 21 22 23 24 25 25 26 28 29 30 30 30 31 31 31 30 30 29 28 28 26 24 23 23 23 24 24 23 23 24 23 22 20 18 17 16 15 14 13 15 16 15 15 15 13 15 15 14 13 12 12
1 3 4 7 4 2 7 5 4 5 3 3 4 4 7 5 1 0 3 5 8 7 7 7 10 13 9 5 5 5 7 10 12 13 15 16 18 18 19 20 21 21 19 17 18 19 20 21 23 23 24 25 25 27 28 29 30 30 30 30 31 31 31 30 29 28 27 25 24 23 23 23 24 24 24 24 23 22 20 19 19 18 16 15 15 16 17 17 17 17 17 17 15 15 14 13 13
2 3 6 6 3 3 8 5 3 2 0 2 3 4 5 3 2 0 0 4 7 7 7 8 9 10 10 9 7 5 4 5 6 7 8 10 11 11 13 16 18 19 17 17 19 19 19 20 21 22 23 23 24 26 26 27 28 29 30 30 31 31 31 31 30 29 27 26 25 24 24 24 25 25 25 25 25 24 23 22 21 20 18 17 17 17 18 19 19 20 20 18 17 16 15 14 13
2 4 4 5 4 4 6 4 4 3 2 4 2 3 2 4 6 3 4 8 10 9 8 7 9 10 11 10 8 6 7 8 12 15 15 16 16 15 13 11 11 11 11 13 16 18 19 20 21 22 23 23 23 24 25 26 27 27 28 29 30 30 31 31 30 29 28 27 26 25 24 24 26 26 26 26 26 25 24 24 22 21 20 19 19 18 19 21 22 22 22 20 18 17 16 15 14
4 4 5 5 4 6 6 4 6 4 4 7 2 3 3 4 6 3 5 12 12 10 6 6 11 11 8 8 8 9 10 11 13 16 18 19 18 18 19 18 16 12 9 9 10 12 15 17 21 23 22 22 22 23 24 25 26 26 26 27 28 29 31 31 31 30 29 28 27 26 24 25 27 27 27 27 26 25 24 24 23 22 22 21 20 20 20 22 23 23 23 21 19 18 17 16 15
4 5 4 3 3 5 7 6 8 7 7 5 2 5 8 7 3 3 10 15 12 7 5 6 8 8 11 12 11 10 11 13 14 15 18 20 19 20 22 22 20 18 16 14 11 8 7 10 14 20 22 21 22 22 23 24 25 25 25 26 26 27 29 30 31 30 29 28 27 26 24 25 27 27 27 27 26 25 24 24 24 24 23 22 21 21 22 22 24 24 24 23 20 18 18 17 16
5 5 3 3 5 6 6 7 8 7 5 1 3 10 10 5 2 3 13 14 9 5 6 7 6 11 12 10 10 10 10 12 14 14 16 21 24 25 25 25 24 23 21 18 14 9 4 4 7 13 18 19 21 22 22 23 24 25 25 25 25 26 27 27 27 27 27 27 27 26 25 25 27 27 28 27 26 26 25 25 25 24 24 23 22 22 22 22 24 25 25 25 21 19 19 18 17
4 3 4 5 6 7 4 6 9 6 5 3 5 12 9 2 2 3 11 8 2 7 7 7 10 12 10 9 9 11 12 13 15 15 18 23 25 25 25 26 25 23 22 20 19 14 7 2 3 7 13 17 19 19 20 21 22 23 24 24 25 25 25 25 25 25 25 25 24 24 24 25 27 27 27 27 27 26 26 26 25 25 24 23 22 22 21 22 23 25 26 25 23 21 19 18 17
1 1 6 7 6 8 7 7 8 3 4 5 8 7 5 1 2 6 11 5 4 6 5 8 11 9 9 9 8 10 12 14 16 18 19 19 20 21 23 24 24 22 22 22 21 18 12 5 1 3 9 13 16 17 18 19 20 21 22 23 24 24 24 24 24 24 24 23 23 23 23 25 27 27 27 27 27 27 27 26 26 25 25 24 23 22 21 21 23 25 26 25 23 21 20 19 18
1 3 5 9 7 8 11 7 3 2 2 5 8 3 5 1 6 11 10 5 5 5 7 9 10 8 7 8 7 8 10 14 17 18 17 17 17 19 20 21 21 21 22 21 20 20 18 12 6 0 4 9 13 15 16 17 18 19 19 20 20 21 21 22 23 23 22 22 22 22 22 24 26 27 28 28 28 28 27 27 27 26 25 24 23 21 21 21 22 24 25 24 24 23 22 21 21
2 2 1 5 7 6 9 2 1 1 2 5 6 2 6 6 9 12 7 4 6 6 8 8 8 7 6 6 7 7 10 14 16 17 18 18 18 19 20 20 20 20 20 20 20 21 21 18 13 7 1 4 8 11 12 13 14 15 16 16 16 17 18 19 20 20 20 20 21 21 22 22 24 25 27 28 28 28 28 27 27 26 25 24 22 21 21 21 22 24 24 24 24 23 22 23 23
2 1 1 2 2 5 8 3 0 2 1 4 5 2 6 9 9 11 6 2 6 7 7 7 7 6 5 5 6 7 9 14 16 17 18 19 19 20 21 21 21 20 19 20 21 21 20 19 18 15 11 6 2 3 6 7 8 9 10 10 10 12 13 15 17 17 18 19 20 21 21 22 22 24 25 26 27 27 28 27 27 26 25 24 22 21 21 21 22 23 24 24 23 23 21 22 24
2 1 3 3 2 4 11 8 3 3 2 3 5 3 6 8 10 11 4 4 6 7 7 7 7 6 6 5 6 6 7 12 16 18 19 20 20 21 22 22 23 22 21 21 21 21 21 21 20 19 18 15 13 9 5 2 1 2 3 4 4 5 7 11 13 14 15 16 17 19 20 21 22 23 24 25 26 27 27 28 27 26 25 24 22 21 21 21 22 23 23 23 23 23 21 22 23
3 1 3 3 4 2 7 7 1 4 2 2 2 2 4 6 9 11 2 6 6 8 7 6 6 6 6 5 5 6 6 9 13 18 20 20 20 21 22 22 22 23 23 23 23 23 24 23 21 21 21 19 17 15 12 11 9 6 5 4 3 2 1 3 5 7 8 9 11 14 16 19 21 23 24 25 25 26 27 27 27 26 25 24 22 21 21 21 22 23 23 23 23 23 22 23 24
3 1 3 4 4 3 3 6 5 3 4 0 2 2 6 8 9 12 5 6 6 8 7 6 6 5 6 5 6 6 6 7 9 14 18 20 21 22 23 23 23 23 24 25 25 25 25 24 23 22 21 20 18 16 15 14 13 13 12 11 10 9 8 5 3 1 0 2 4 5 8 12 17 20 22 24 24 25 25 26 26 25 24 23 22 21 21 21 22 23 23 23 23 23 23 24 25
4 4 4 4 3 4 5 5 4 3 3 2 4 3 8 10 10 12 7 6 7 7 7 6 6 5 5 5 6 6 7 7 9 13 17 20 22 23 24 25 25 25 26 26 26 26 26 25 24 23 22 20 18 17 15 13 12 13 13 13 14 14 12 11 10 9 8 7 6 5 3 4 8 12 15 17 20 21 22 23 24 23 23 23 22 21 21 21 22 23 24 24 24 24 24 24 24
7 6 3 4 4 5 6 6 5 2 1 4 6 7 8 9 11 11 7 6 8 7 6 6 5 6 5 6 6 6 7 7 9 14 19 21 23 24 25 26 26 27 27 27 27 27 27 26 25 25 24 20 18 18 17 16 15 14 13 13 14 16 14 13 13 13 13 12 12 11 9 8 5 4 6 8 11 15 18 20 21 22 22 22 22 22 22 23 24 25 25 25 25 24 24 23 22
3 3 2 5 5 6 7 7 7 2 2 6 7 6 6 9 11 8 6 4 7 7 7 6 5 5 5 6 6 6 7 6 10 16 20 22 23 25 26 27 28 29 29 29 29 29 29 28 27 28 25 22 21 20 20 19 19 18 17 17 17 17 16 14 15 15 14 13 12 12 11 11 10 9 9 8 7 7 10 13 16 18 19 20 21 23 24 25 25 26 26 25 24 24 24 23 22
2 3 4 5 5 7 7 6 7 1 3 6 4 3 6 10 9 5 6 5 5 4 7 7 6 6 5 6 6 6 5 5 10 15 19 22 23 25 26 27 28 28 29 29 30 29 29 29 29 28 26 24 24 23 21 21 20 19 18 18 17 16 17 17 17 16 14 13 12 12 11 10 9 9 10 11 12 11 10 9 10 12 15 18 20 22 23 24 25 25 25 24 23 24 24 23 23
3 2 2 5 4 4 7 6 6 2 2 4 3 2 7 10 5 6 7 5 5 4 7 6 6 7 5 5 5 5 5 6 7 10 16 21 22 24 26 26 27 27 28 29 29 29 29 29 28 27 26 25 25 23 23 23 21 19 18 18 16 17 18 18 17 17 15 14 14 13 12 10 8 7 7 8 9 11 12 12 11 11 12 14 17 19 20 21 23 24 24 24 23 23 23 22 23
2 2 2 5 3 2 4 5 5 3 1 3 3 3 6 8 2 7 7 5 7 7 9 8 6 6 5 5 5 5 6 6 7 8 13 17 20 24 26 26 26 27 29 29 29 29 29 28 27 26 25 24 24 23 23 23 22 21 21 20 18 18 18 16 16 17 16 17 18 17 16 14 12 10 8 7 7 8 9 10 11 11 12 12 13 15 17 19 20 22 23 24 23 21 21 22 24
4 6 5 5 5 6 6 4 5 4 4 2 2 5 5 7 4 3 5 5 7 7 9 9 7 6 5 6 6 6 5 5 6 7 9 14 18 21 23 23 24 27 28 28 28 28 28 27 26 25 25 24 23 22 21 20 20 19 19 18 17 18 18 19 19 19 18 17 18 18 17 17 17 15 14 12 10 9 8 9 9 10 11 11 11 12 14 17 18 20 21 23 24 22 21 23 24
4 5 9 9 8 7 6 3 4 4 5 3 2 3 5 5 3 3 4 4 6 6 7 7 6 5 5 6 6 5 5 5 5 7 8 12 15 18 20 21 23 27 27 26 27 27 28 28 27 26 26 25 24 23 20 19 19 19 18 19 20 20 21 22 22 21 20 18 17 14 13 14 15 16 16 15 14 12 11 10 10 9 10 11 11 11 11 12 15 18 20 21 23 24 23 22 22
3 4 7 8 6 4 5 2 2 1 4 4 3 0 6 5 2 4 6 5 6 5 6 6 4 4 4 4 4 4 4 5 5 7 8 11 13 15 17 20 24 26 25 25 27 28 29 29 28 28 28 27 25 24 22 21 22 22 22 23 23 22 21 20 20 20 20 18 16 15 14 13 12 12 12 13 13 13 13 12 11 11 11 11 11 11 11 11 12 14 18 20 21 23 24 22 22
4 5 4 5 5 4 3 4 3 2 3 5 4 2 4 5 5 5 8 8 5 5 5 4 3 3 4 4 4 4 4 4 5 5 7 10 12 13 16 21 24 24 23 26 28 28 29 29 29 29 28 28 26 25 24 24 25 24 24 24 24 23 22 21 19 18 18 16 16 17 16 15 14 12 11 11 11 11 11 12 12 13 12 12 13 12 12 12 12 12 14 17 18 20 22 23 24
6 5 5 6 5 4 4 6 2 1 2 5 3 2 2 6 5 1 8 7 4 5 5 4 4 4 4 4 4 3 3 4 4 4 6 9 12 14 17 21 22 22 23 25 26 27 27 28 28 28 29 28 27 27 28 28 27 27 26 26 26 25 23 22 21 20 20 19 19 19 18 17 16 14 13 12 12 11 11 10 10 11 12 13 14 14 13 13 13 13 13 15 16 18 19 21 24
4 4 6 6 5 5 5 5 3 3 2 5 5 4 2 5 6 2 4 5 5 5 5 5 5 4 4 4 4 3 3 4 4 5 7 10 12 15 18 20 21 21 22 23 24 25 26 27 27 28 28 28 27 28 29 30 29 29 29 29 28 27 26 25 25 26 26 25 25 25 23 22 20 18 17 16 14 13 12 11 10 10 10 11 12 13 13 13 13 13 13 14 15 16 18 19 21
4 6 6 6 5 5 4 2 4 3 4 6 8 9 6 4 5 2 2 2 4 7 6 6 6 5 4 4 3 3 3 3 4 5 8 11 13 15 17 19 19 19 21 22 23 24 25 26 26 28 28 27 27 28 29 30 30 30 30 29 29 28 27 27 28 29 29 29 29 28 27 27 26 25 24 22 21 18 15 13 11 10 10 11 12 13 14 15 15 15 14 14 14 15 16 17 19
5 5 4 3 4 4 4 4 4 1 6 6 5 7 6 5 5 2 3 5 2 8 11 11 10 7 6 5 4 3 3 3 4 4 6 9 12 13 15 17 18 19 20 22 22 23 24 24 25 27 27 27 27 27 29 30 30 30 29 29 29 28 28 28 29 29 28 28 29 28 28 28 28 28 28 28 27 24 22 19 15 13 13 13 14 15 16 16 15 15 15 15 15 15 16 16 18
5 4 5 3 2 3 3 3 0 3 7 5 3 5 3 6 4 3 5 6 6 5 10 13 12 10 7 6 5 4 3 3 3 3 4 6 9 10 13 15 17 19 19 20 20 21 22 22 24 26 26 26 26 27 28 29 30 30 29 28 28 27 27 27 27 27 27 27 27 27 27 27 27 28 28 28 27 26 25 24 21 19 18 17 17 16 16 16 15 15 15 16 16 17 17 17 18
4 5 5 4 2 1 3 4 1 3 6 4 3 4 2 5 2 3 5 6 6 0 8 9 9 9 7 6 5 4 4 3 3 3 3 5 7 9 11 14 16 17 17 18 19 19 21 21 23 25 25 24 25 26 27 28 29 28 27 27 26 25 26 26 25 25 24 24 24 24 25 25 25 25 25 25 24 24 24 23 23 22 21 21 20 18 17 16 16 16 16 16 17 17 17 18 19
4 4 5 5 5 4 4 4 3 4 5 4 1 3 3 3 2 3 4 4 4 5 8 7 7 6 5 5 5 4 4 3 3 3 3 5 7 8 11 13 15 16 17 18 18 18 19 20 21 23 23 23 23 24 25 26 26 26 25 25 24 24 23 23 23 22 22 22 22 22 22 22 22 22 22 22 21 21 22 21 21 22 22 22 21 21 20 19 18 17 18 18 18 18 18 19 19
2 3 5 3 4 5 2 3 5 4 2 3 2 2 3 3 2 3 2 3 5 6 6 8 7 5 5 5 5 5 4 4 3 3 3 5 8 9 11 13 14 15 16 16 16 16 17 18 19 20 20 19 20 21 22 23 23 23 23 23 22 21 21 20 20 20 20 20 19 20 20 20 20 20 20 21 21 21 21 21 21 21 21 21 21 21 21 21 20 19 19 19 19 19 20 20 20
2 3 3 4 4 6 2 3 1 3 2 4 2 2 2 1 2 2 2 3 4 4 5 7 6 6 6 6 5 5 5 5 4 4 5 7 9 10 11 12 13 13 13 13 14 14 15 15 16 16 16 16 16 17 19 19 20 21 22 21 21 20 19 18 17 17 17 17 18 18 18 19 20 20 21 21 21 21 21 21 21 21 21 22 22 22 22 22 21 21 20 21 21 21 21 21 21
5 3 5 3 2 4 3 1 2 1 3 4 2 4 4 1 2 1 1 2 4 4 5 6 6 7 7 7 6 5 5 5 5 6 7 10 11 11 12 12 12 11 11 11 12 13 13 14 14 14 14 14 15 15 16 16 18 19 19 19 18 18 17 16 15 15 16 16 18 19 19 20 20 21 21 22 22 23 23 23 23 23 23 23 23 23 23 23 23 23 23 22 22 22 22 22 22
5 3 3 3 2 1 1 2 2 2 4 3 3 6 5 4 4 3 6 9 9 7 7 7 8 8 8 7 6 6 6 6 6 6 7 10 13 13 13 14 13 12 12 12 12 12 13 13 13 13 13 13 13 14 14 15 15 16 15 15 16 15 15 15 13 13 15 16 18 20 21 21 21 22 22 23 24 24 25 25 25 25 25 25 25 24 24 24 24 24 25 25 24 24 25 24 24
2 0 1 1 2 3 2 2 2 3 4 4 5 5 4 5 5 8 11 13 12 11 9 9 10 9 8 7 7 7 7 7 7 7 7 10 15 16 15 16 16 14 13 13 13 13 12 12 12 12 12 12 13 13 14 14 14 13 12 12 13 14 14 15 14 14 15 15 16 19 20 21 21 22 22 23 23 24 25 26 26 27 28 28 28 28 27 27 26 26 26 26 26 26 26 27 27
2 2 2 1 1 1 1 2 2 2 3 4 5 6 5 4 3 7 10 10 12 14 12 10 9 8 8 8 9 9 8 8 8 7 7 12 15 16 17 17 16 15 14 13 13 12 11 10 10 10 10 11 12 13 13 13 13 12 11 11 12 13 15 15 15 16 16 16 16 18 20 20 21 22 23 23 23 23 24 25 25 26 27 28 29 30 30 30 30 30 29 28 28 28 28 28 29
4 4 4 4 3 2 2 4 1 2 3 4 4 7 6 4 1 2 5 7 10 12 11 9 9 10 10 10 11 10 9 8 8 7 8 12 15 16 17 17 17 16 15 13 12 11 11 10 9 8 8 9 10 11 12 12 12 12 12 12 13 14 16 17 17 18 18 18 18 19 20 21 22 23 24 24 25 25 25 26 26 26 27 27 28 29 30 31 32 32 32 32 31 30 30 31 30
Wind_Direction
310 307 319 336 328 335 353 64 57 344 75 61 327 79 230 236 174 109 271 305 12 261 225 198 156 122 93 177 190 196 182 174 172 121 208 246 160 173 178 186 193 175 178 180 188 193 192 192 188 184 182 179 178 176 176 177 176 176 177 179 176 174 175 177 179 168 161 159 162 160 156 157 154 156 155 154 157 156 150 143 152 148 142 146 142 136 132 129 122 131 138 122 126 122 116 110 106
332 325 338 334 324 348 296 72 84 344 50 60 317 146 233 329 32 156 203 204 206 239 209 192 201 86 65 138 159 123 237 224 185 169 236 200 142 174 178 189 200 181 178 179 187 193 193 193 192 188 185 182 181 180 179 178 179 180 181 182 179 176 178 178 178 170 163 164 164 161 160 160 159 162 164 165 166 167 159 154 165 160 148 148 147 140 132 132 125 135 153 130 148 146 137 134 131
350 342 352 344 331 37 41 42 90 59 71 91 298 254 296 26 184 219 217 217 227 239 76 95 350 110 61 27 103 122 274 273 191 189 304 169 162 177 184 194 194 187 183 179 186 192 194 194 193 190 188 187 184 184 183 183 183 183 183 183 181 180 181 181 178 170 167 170 166 166 168 164 166 166 168 171 173 180 169 166 178 163 148 155 153 142 132 138 133 127 106 110 160 169 165 167 184
355 347 344 359 25 30 50 50 114 109 114 151 276 275 282 182 208 242 241 257 262 307 47 62 9 203 106 359 262 154 266 289 215 177 160 190 183 179 189 197 186 185 187 184 187 192 196 196 194 192 189 191 188 187 187 187 187 186 187 185 185 184 183 184 179 173 172 174 171 174 175 173 176 175 177 178 179 192 179 177 186 165 157 164 152 140 133 139 135 109 15 3 196 187 184 191 206
350 350 340 19 68 33 81 75 91 100 164 181 143 271 255 208 212 248 275 308 298 340 125 115 349 278 126 212 184 154 236 278 245 202 194 188 175 170 185 195 186 184 188 188 189 193 198 197 196 194 192 193 191 191 191 191 189 188 190 187 188 186 184 186 181 176 176 176 178 181 182 182 182 181 184 183 186 193 184 181 184 171 168 162 145 142 132 123 109 52 355 349 252 221 208 210 217
349 2 7 44 81 114 86 64 47 276 217 169 151 245 239 225 209 162 335 330 327 338 167 123 85 324 333 248 183 191 220 109 202 205 195 178 165 162 179 192 189 187 190 189 191 194 198 198 198 196 195 195 192 193 194 194 191 191 194 190 189 188 185 189 183 178 179 179 184 186 187 189 187 186 185 186 188 183 175 173 175 174 170 152 142 146 133 117 90 58 56 70 292 265 238 230 222
351 359 19 50 40 52 84 109 185 248 227 166 168 213 218 232 211 117 17 338 353 342 299 203 132 86 296 290 297 247 206 175 181 181 177 167 163 162 176 189 191 191 191 190 191 193 198 200 200 198 198 198 196 197 197 197 194 194 196 191 189 189 187 191 186 181 181 183 188 190 191 195 193 190 187 185 185 177 167 168 171 168 164 154 154 156 147 149 102 75 89 97 268 275 240 216 169
354 0 36 78 34 25 85 119 221 210 212 229 196 198 207 212 193 104 45 20 355 312 323 301 47 67 297 2 312 268 353 194 184 163 165 161 164 163 176 188 193 193 192 193 192 192 197 201 203 201 200 200 200 200 200 200 198 197 197 194 191 190 189 192 188 184 185 188 192 192 194 201 200 193 189 185 183 177 167 176 177 168 170 169 171 167 162 187 242 216 176 171 246 278 128 143 133
17 33 49 77 62 28 48 9 307 231 269 289 236 219 222 196 149 93 91 14 5 268 288 276 39 12 300 354 285 277 348 178 162 159 159 156 165 165 178 191 197 194 194 197 195 193 195 201 204 204 203 202 203 203 203 202 202 202 201 200 198 193 189 192 192 190 191 194 196 194 197 205 207 199 193 186 185 183 175 185 185 178 187 192 194 190 193 209 213 209 199 232 265 273 136 134 134
32 33 79 74 72 38 3 318 326 289 276 289 270 261 263 206 94 76 88 15 12 272 290 264 86 324 299 319 280 302 342 179 159 161 160 157 166 170 182 192 201 201 198 200 200 197 195 200 204 207 206 204 205 205 206 205 204 205 205 204 202 196 191 192 194 196 197 198 199 197 199 209 215 206 196 189 188 191 186 190 196 194 197 207 219 222 227 234 228 224 231 259 266 230 154 140 138
35 356 83 76 61 57 358 269 290 285 285 306 300 273 254 203 90 70 60 19 348 28 313 7 54 282 326 299 265 297 261 207 179 169 167 166 173 176 183 192 201 207 208 206 205 203 199 199 203 208 210 208 208 208 208 207 206 207 208 208 205 200 196 194 195 198 198 197 200 199 202 211 219 212 199 194 195 196 195 197 204 208 209 217 228 233 245 250 244 241 239 252 246 175 154 149 144
68 339 61 84 102 172 211 234 274 279 302 325 291 282 253 114 83 98 27 49 350 14 311 179 134 205 349 304 265 302 262 204 192 188 188 178 180 178 181 193 200 206 214 216 213 209 204 201 203 207 211 212 211 211 211 209 208 209 210 211 208 204 201 200 199 199 198 196 199 199 204 213 220 217 203 195 199 200 199 202 206 212 218 228 231 233 243 233 236 235 223 235 226 161 160 154 147
98 121 80 86 175 183 199 225 277 312 332 298 213 284 27 80 204 199 174 158 349 16 278 212 152 99 275 278 284 319 279 207 200 211 207 185 184 182 182 192 198 203 212 219 220 218 212 208 206 207 211 214 214 214 214 213 211 211 212 213 211 209 205 205 204 201 201 199 201 201 204 213 219 218 205 197 203 205 203 205 209 215 222 232 234 237 236 221 226 232 227 240 236 174 166 158 152
113 140 102 106 252 132 189 280 324 63 336 268 242 289 345 21 224 186 150 341 278 202 233 209 147 109 255 299 322 311 270 220 208 212 207 189 190 186 186 194 200 204 211 218 224 226 220 215 212 210 210 213 216 216 216 216 215 214 214 215 213 212 209 209 208 205 205 204 205 206 207 213 218 217 208 205 208 209 210 212 215 221 229 238 242 238 224 211 226 239 239 243 232 188 171 164 160
119 117 92 103 4 359 217 287 31 113 205 254 259 290 345 307 178 163 205 264 273 223 217 239 144 157 230 222 271 265 292 246 211 208 205 196 196 192 194 200 205 208 212 217 222 228 226 222 218 216 214 212 215 216 217 218 218 217 217 217 215 214 212 211 211 210 209 208 209 211 212 215 218 216 210 211 211 213 218 221 223 224 236 243 230 227 215 197 215 236 240 235 221 189 177 169 167
107 104 71 70 1 351 232 222 98 84 280 238 270 333 7 305 124 2 257 141 292 283 69 235 184 204 206 196 246 280 321 269 210 207 205 199 197 198 204 206 210 211 213 217 221 226 227 226 223 221 219 216 216 217 218 219 220 220 219 218 217 216 214 213 214 215 214 212 213 213 214 217 219 217 212 212 212 217 222 227 230 230 242 235 214 221 217 204 212 230 235 230 216 191 180 173 173
59 76 69 41 190 225 217 180 111 84 281 269 309 5 102 301 319 310 312 79 310 290 268 241 240 206 205 225 275 317 320 249 210 208 205 203 201 203 210 213 214 214 216 219 222 225 226 228 229 226 224 221 220 219 220 221 221 221 221 220 219 218 217 216 216 217 218 216 217 217 215 217 219 219 216 215 215 218 224 231 234 236 247 233 215 220 221 213 214 227 232 228 215 192 179 176 178
50 77 94 262 193 205 188 167 174 169 276 276 306 45 138 286 308 317 345 16 327 304 290 264 281 269 245 261 286 310 294 230 214 209 205 209 209 210 214 218 219 221 222 224 226 227 228 229 231 231 229 226 224 222 223 223 223 222 222 222 221 221 219 219 219 220 221 219 220 220 218 218 220 221 219 218 219 220 226 231 233 238 247 237 223 225 226 217 215 228 232 225 214 189 180 180 182
82 115 105 237 203 215 200 176 195 202 246 256 280 236 177 244 265 336 314 312 332 317 296 296 298 280 262 268 281 301 259 220 223 216 215 219 220 223 226 226 225 229 229 229 233 232 233 233 232 233 232 230 227 225 226 225 225 224 223 223 223 223 222 222 223 224 225 223 222 222 222 220 221 222 221 221 221 223 226 231 237 243 244 237 229 229 229 221 217 229 227 216 208 189 184 185 187
144 119 105 243 217 235 239 199 207 226 214 252 283 279 290 270 218 313 330 311 310 286 279 295 302 295 275 253 270 292 239 227 229 224 226 229 231 232 235 236 234 238 239 240 244 240 237 237 237 237 236 233 230 228 228 228 228 226 225 225 225 224 224 224 225 227 228 228 225 224 225 223 223 223 223 223 222 224 226 231 241 243 238 233 231 230 231 225 217 222 220 209 201 192 189 189 193
169 135 180 232 207 245 261 239 231 230 195 225 278 330 321 293 185 74 10 332 302 275 252 241 269 289 295 273 262 256 240 240 239 238 242 248 254 253 255 259 258 258 255 248 246 243 240 241 241 240 238 235 233 231 230 230 230 228 226 226 227 226 226 225 225 228 229 230 228 226 227 225 224 224 224 223 222 224 226 230 234 232 232 232 231 230 231 228 220 221 225 213 199 194 193 193 199
167 218 208 222 179 230 270 261 269 276 264 282 305 321 299 304 346 204 262 283 272 269 257 238 245 270 287 291 288 280 278 291 313 322 314 317 316 306 297 294 291 288 281 266 257 253 247 243 243 240 239 237 237 237 234 234 233 232 230 228 228 228 228 226 226 227 228 230 229 227 227 225 224 224 223 223 222 223 225 227 227 228 231 233 232 233 231 229 225 225 230 220 202 196 195 196 202
208 274 252 242 206 228 277 294 308 338 335 292 284 289 303 356 320 262 222 245 245 258 267 271 272 272 283 301 325 8 29 27 31 28 22 20 20 19 14 5 348 326 309 295 287 275 258 247 243 239 238 238 238 239 237 236 236 235 235 233 230 228 228 228 228 229 230 231 230 228 227 225 224 224 223 223 222 221 223 225 227 230 234 235 235 235 233 230 229 229 233 227 208 200 199 199 203
204 256 281 262 217 220 256 281 287 286 261 254 238 330 312 294 298 309 268 259 255 268 292 293 284 297 330 8 28 45 49 45 41 36 35 34 31 30 30 33 34 32 21 356 329 303 279 260 247 240 239 240 240 239 238 239 239 238 238 238 234 230 228 229 230 231 233 234 233 231 228 226 225 225 225 223 222 223 225 229 232 235 236 237 236 237 236 233 231 230 233 231 215 206 204 202 206
198 228 276 288 253 242 261 275 276 278 265 254 299 301 269 242 256 313 272 268 272 289 351 319 302 353 41 53 48 49 48 40 32 29 32 31 30 33 33 32 35 37 32 23 8 341 306 279 258 245 241 242 242 239 240 241 241 239 237 238 237 233 231 232 234 234 235 236 236 235 229 226 227 227 227 227 226 227 230 234 237 238 237 237 236 237 237 235 233 231 233 233 224 215 211 207 208
210 207 254 277 282 278 282 282 277 279 269 249 309 284 275 244 190 267 263 262 283 347 4 330 17 51 59 59 48 45 43 35 25 22 26 27 29 28 26 27 30 32 28 26 23 11 343 297 274 255 246 245 244 242 243 243 242 240 239 239 238 237 236 236 236 236 237 238 238 237 230 226 229 230 229 230 231 232 235 238 239 239 239 238 238 239 238 238 237 234 233 234 229 221 217 214 214
211 210 262 261 283 293 273 266 277 287 273 222 232 267 283 275 168 261 268 256 340 23 353 352 56 70 65 60 52 46 43 34 23 25 28 25 25 21 19 22 25 27 28 30 31 26 16 330 280 265 253 248 246 246 246 246 245 244 243 241 239 239 240 240 238 238 238 240 242 241 234 228 230 233 233 233 234 237 239 241 241 240 240 240 239 241 242 242 241 239 237 237 234 226 221 220 220
198 313 312 299 323 313 281 271 278 292 285 209 183 251 296 14 174 233 255 273 40 53 16 26 65 77 66 62 53 47 43 34 28 33 31 23 20 18 20 21 20 25 30 32 35 37 35 34 12 264 254 251 251 253 251 250 250 248 246 242 241 241 240 240 239 239 240 241 243 243 241 236 233 235 236 238 239 241 242 243 244 242 242 241 240 242 245 246 245 242 239 239 239 233 228 227 225
27 47 331 304 353 326 285 285 268 151 269 186 151 289 313 187 218 238 251 301 359 54 57 50 72 75 63 63 55 52 43 35 34 34 29 25 23 23 26 26 25 28 33 37 43 47 47 47 51 63 245 251 252 254 254 253 253 250 247 245 244 242 239 238 238 240 242 244 244 243 245 243 239 238 238 241 243 244 244 245 246 246 244 242 241 243 245 247 246 241 238 237 239 238 235 232 227
325 28 355 301 359 322 281 296 92 136 220 174 144 291 284 249 238 251 267 318 341 21 58 66 80 76 65 64 59 55 43 37 36 32 27 26 25 26 29 31 36 37 39 46 50 52 53 56 59 63 75 253 254 255 255 255 255 252 250 248 247 246 242 241 241 241 242 242 244 245 246 246 244 243 243 243 244 244 245 245 247 247 246 242 242 245 246 247 246 242 238 237 240 242 241 236 229
330 338 6 339 350 281 291 305 320 306 260 148 135 196 260 273 268 266 272 15 13 25 61 77 81 75 68 62 62 56 45 41 37 34 31 29 29 29 31 34 41 46 49 52 54 57 59 62 66 68 70 67 47 287 272 266 266 261 257 255 255 256 253 250 248 246 245 243 243 243 245 245 245 244 245 244 244 244 245 245 247 248 246 243 242 245 247 247 246 244 241 239 241 243 243 237 231
29 335 309 335 194 261 306 297 202 213 279 90 122 200 264 278 280 278 271 84 52 58 77 79 79 75 72 60 60 61 47 43 39 35 32 31 32 32 34 36 42 49 56 59 59 62 64 64 68 72 74 74 73 67 56 43 329 279 263 263 261 261 256 253 250 248 247 245 244 243 243 243 242 242 244 244 244 244 245 246 247 247 245 244 244 245 247 248 245 243 242 242 242 241 240 236 234
353 165 247 271 219 260 314 299 250 175 204 60 135 213 278 278 279 287 328 84 67 85 91 80 82 74 72 65 58 63 49 41 35 30 29 32 35 35 37 39 42 49 56 63 65 64 64 63 66 69 71 73 74 74 74 74 74 77 81 84 91 107 202 242 248 247 247 246 246 246 244 242 241 240 242 244 244 244 244 244 244 243 242 243 245 246 248 249 246 242 241 241 240 239 239 237 236
317 288 227 246 230 232 289 299 326 57 104 43 245 207 259 273 283 290 324 65 68 95 106 94 90 77 72 70 61 59 51 46 32 25 27 32 37 40 42 43 45 49 54 62 67 69 69 67 67 68 69 71 72 73 75 76 78 79 79 81 83 84 83 83 84 93 293 266 261 257 251 246 242 240 242 243 244 243 241 241 240 239 239 242 245 248 249 247 244 242 241 239 238 238 240 241 240
243 249 240 265 256 246 262 273 296 9 47 283 274 264 262 277 283 284 310 62 80 100 115 105 92 80 71 67 64 60 54 52 35 27 32 37 40 43 46 47 47 49 53 58 65 70 72 71 71 70 68 69 71 74 76 79 80 78 78 78 74 70 68 69 68 62 56 51 43 31 357 287 257 246 245 244 242 241 239 239 241 240 240 241 241 243 244 244 242 240 239 238 236 238 242 245 244
222 239 223 246 265 263 256 259 260 247 294 267 258 262 265 280 280 282 316 56 94 107 107 98 89 79 71 66 61 57 56 50 34 34 40 42 43 46 48 49 50 52 53 57 63 66 68 70 72 70 67 67 70 71 73 76 76 73 73 72 66 61 60 62 61 54 50 49 47 47 45 36 10 317 281 265 252 244 239 236 237 239 240 240 240 241 243 246 245 243 240 237 235 236 238 241 243
232 256 251 244 251 269 266 270 276 200 202 259 244 247 265 270 273 289 323 19 90 113 107 94 89 80 73 72 64 56 55 45 37 40 43 45 47 50 50 51 53 54 54 57 60 62 63 67 69 68 67 69 69 68 69 71 71 69 68 67 64 60 59 60 60 55 50 47 44 44 45 43 35 25 12 356 333 294 266 251 243 239 239 239 242 246 246 246 245 244 241 237 235 234 235 236 236
238 237 260 266 247 261 269 269 285 244 188 270 270 260 271 263 271 329 357 23 57 100 113 104 98 90 75 72 64 54 52 39 39 39 40 43 47 50 50 51 52 52 52 55 59 61 64 67 68 68 69 70 71 71 74 75 74 73 71 69 65 62 58 57 59 58 56 54 48 43 38 34 30 24 17 12 7 1 347 322 293 270 255 246 243 243 243 241 241 241 240 237 235 235 236 237 230
214 208 236 259 253 278 285 280 303 355 177 272 324 307 273 272 290 28 27 47 50 53 89 92 92 91 75 68 62 51 50 37 35 35 35 39 43 50 51 49 50 52 53 56 60 62 65 66 67 69 71 72 73 75 78 79 80 81 80 77 74 71 66 63 63 61 58 56 52 47 43 35 27 21 13 6 4 5 3 356 346 327 300 276 260 251 246 244 243 242 241 240 238 234 234 236 231
206 212 224 251 265 298 278 284 316 348 222 264 327 318 284 278 301 59 37 54 68 56 68 66 62 75 68 65 58 47 51 40 35 33 31 35 40 47 49 48 49 52 53 54 57 60 62 65 68 71 73 75 77 80 83 86 88 88 87 85 84 81 76 72 68 61 58 58 56 53 48 42 36 30 22 12 6 4 2 357 354 348 339 323 299 279 267 260 254 250 247 244 240 234 233 235 235
244 221 217 238 247 224 232 281 325 333 339 341 334 324 299 267 257 84 56 60 71 62 70 67 54 59 60 63 58 46 48 42 40 38 27 32 38 44 49 51 53 53 52 52 54 58 61 66 70 74 77 78 79 83 88 93 93 91 90 86 81 76 68 61 56 52 53 55 55 54 52 49 46 42 35 27 19 10 5 359 353 348 346 343 334 317 295 282 273 266 260 253 246 241 240 241 240
283 235 213 221 231 230 241 311 8 5 334 328 8 325 295 285 283 151 137 87 70 60 67 72 59 53 55 60 59 48 46 44 46 45 33 34 40 46 49 52 56 57 55 56 59 62 64 66 70 74 77 79 80 82 86 91 89 84 82 76 68 62 55 50 48 48 49 50 50 52 53 50 49 48 44 38 33 27 19 9 359 352 349 346 343 339 324 304 290 281 275 267 259 254 250 247 245
275 248 208 210 214 229 248 229 88 105 259 295 48 283 274 298 296 189 159 116 92 79 65 72 65 56 64 65 62 53 46 44 46 45 40 40 43 47 49 50 56 59 60 64 66 66 66 66 68 72 75 78 81 83 86 87 86 82 79 76 69 64 58 52 53 55 54 52 53 54 55 52 47 44 40 34 32 31 30 26 17 7 359 354 349 344 339 328 310 296 286 277 271 265 256 250 250
237 240 162 153 169 193 212 154 147 209 250 319 18 107 267 281 263 198 144 120 103 99 85 84 88 81 84 78 70 65 53 49 49 46 41 43 45 48 52 55 60 64 66 69 70 68 68 67 68 71 74 77 81 86 88 87 86 84 80 78 73 68 63 58 58 58 55 53 52 52 54 56 52 46 38 29 23 21 23 26 26 21 14 6 0 354 347 340 328 314 302 291 284 275 263 256 253
240 215 133 113 130 144 113 105 119 349 2 306 293 125 266 270 274 184 133 140 154 152 145 138 137 131 117 104 93 80 68 62 59 59 51 49 50 53 59 63 65 68 69 71 73 74 74 72 72 73 73 74 79 84 87 86 85 84 81 78 74 70 69 66 63 60 57 54 50 47 47 50 50 47 41 33 27 23 19 16 16 18 16 11 4 358 352 346 340 330 321 312 304 294 282 270 262
219 147 96 64 70 81 75 93 96 35 345 251 210 168 225 267 286 293 148 171 189 171 164 162 159 157 143 127 119 103 80 69 65 67 65 61 61 64 68 70 70 71 73 75 76 77 78 77 76 76 73 73 76 80 82 82 81 80 77 75 72 69 67 65 63 60 57 55 53 49 46 45 45 44 41 36 32 28 23 17 12 7 3 1 357 353 349 344 341 336 329 323 316 310 302 291 280
128 94 56 32 29 41 48 57 77 56 285 248 203 188 192 255 284 248 175 231 188 161 159 173 170 159 156 148 135 123 103 90 80 71 71 72 73 73 74 74 72 74 78 79 78 77 78 79 79 78 76 75 76 77 80 79 78 77 74 72 69 66 63 61 59 56 53 53 52 49 48 47 46 45 43 40 37 32 29 23 16 7 355 350 348 345 342 336 333 330 327 324 320 316 312 306 298
96 85 65 47 345 9 24 358 47 120 256 259 217 185 175 229 266 276 300 315 238 173 169 172 168 160 162 159 151 149 138 114 95 79 75 76 75 74 74 72 71 73 76 77 78 79 80 80 81 81 78 77 77 77 79 79 78 77 75 73 70 67 65 62 60 56 53 52 50 48 47 45 44 43 42 41 39 35 33 29 22 13 1 352 346 340 337 334 330 326 324 322 320 318 314 311 307
82 100 94 84 322 348 358 307 283 215 252 257 182 146 173 236 252 319 316 323 304 217 169 162 160 157 159 158 161 160 146 125 108 97 83 78 74 72 73 72 71 72 73 77 80 82 82 82 83 82 79 78 79 79 79 79 78 78 76 75 73 71 68 66 63 60 56 53 51 48 46 43 41 40 39 39 38 37 36 34 30 25 16 7 357 349 343 339 336 334 331 327 323 320 317 315 310
138 146 134 127 145 192 252 260 265 257 268 277 160 140 243 266 291 338 313 316 314 217 132 141 146 146 153 156 159 155 142 139 128 113 92 84 82 80 79 77 76 77 78 81 83 85 86 86 86 85 83 82 82 82 81 80 79 79 78 76 74 71 69 66 64 61 58 55 52 49 46 44 41 39 38 36 35 34 35 34 33 31 28 23 16 9 0 351 343 337 336 334 330 326 322 319 315
175 156 138 150 160 172 208 218 210 239 275 301 231 160 199 230 278 315 304 328 2 73 103 112 118 129 140 137 144 149 146 154 139 113 104 102 100 95 92 89 87 87 86 87 88 91 92 91 91 89 87 85 84 83 82 81 80 79 78 76 73 70 68 65 61 57 54 52 49 46 44 41 39 37 35 33 30 29 28 28 27 26 25 24 21 18 13 6 358 348 341 335 331 329 326 321 319
212 130 116 167 185 167 191 214 182 183 282 289 222 209 206 196 274 315 346 31 50 73 98 111 116 127 133 140 160 167 168 175 159 137 135 130 123 116 109 106 103 98 94 93 94 97 99 98 96 94 90 87 85 82 80 79 78 76 74 71 68 66 64 61 57 52 49 46 42 40 37 34 32 30 27 25 23 22 21 20 20 18 17 15 14 13 11 9 6 0 354 346 339 334 329 322 319
168 130 175 214 179 134 123 273 185 107 248 255 209 240 285 304 274 295 38 57 77 91 113 127 138 150 155 172 184 183 186 186 177 172 171 154 139 133 128 123 121 117 110 106 105 104 107 106 103 100 96 92 87 83 79 76 73 71 67 65 62 58 56 52 48 45 42 41 38 35 31 28 25 22 19 17 15 14 14 13 12 11 9 7 6 4 3 1 360 359 357 353 349 343 334 327 323
131 170 212 203 122 94 102 227 321 35 235 264 259 236 247 246 245 264 98 162 166 170 160 150 163 175 180 191 192 194 195 189 190 187 179 169 157 151 148 142 139 138 135 129 123 117 113 112 110 108 103 97 91 86 82 76 71 67 63 60 55 51 48 45 41 35 31 29 27 25 23 21 19 16 13 11 9 8 7 6 5 4 2 1 359 358 356 353 351 350 349 348 346 344 338 334 331
131 193 206 123 136 244 110 167 220 235 235 270 271 243 234 211 204 192 199 200 190 185 179 176 188 192 193 197 200 203 197 192 195 191 187 181 173 167 162 159 155 153 153 149 143 137 127 118 112 108 105 101 96 91 85 79 73 68 62 56 50 45 43 40 37 28 21 19 17 15 14 13 11 9 7 6 4 2 1 360 358 357 356 354 353 352 350 348 345 343 342 340 339 337 335 333 332
80 168 305 74 174 184 160 176 181 207 234 254 252 241 246 240 201 183 199 197 181 180 187 193 197 196 196 195 197 202 198 197 197 191 193 190 182 177 171 169 166 161 158 155 151 148 140 129 118 111 108 105 99 90 83 78 74 70 63 53 43 39 37 34 32 27 20 16 10 6 7 5 4 2 1 1 360 358 356 354 352 350 349 347 346 344 344 342 339 337 335 333 332 331 329 326 326
131 171 211 238 217 156 246 225 132 158 215 240 254 250 252 262 192 181 204 195 177 182 187 191 197 198 202 204 201 203 199 198 200 194 194 191 187 183 177 175 173 166 162 160 156 152 147 142 135 120 107 97 88 81 78 76 74 70 62 53 40 32 29 25 23 20 17 14 7 2 1 359 357 357 356 354 353 352 350 347 345 343 341 340 338 337 336 335 332 330 329 327 326 325 323 321 320
155 175 190 189 174 139 255 254 186 159 202 196 231 257 261 260 211 205 222 189 179 187 182 182 195 198 205 213 208 204 202 201 201 197 193 190 187 184 179 177 176 174 172 168 164 161 155 148 140 125 103 90 81 74 71 69 65 60 51 42 32 24 19 16 14 11 9 8 4 0 358 354 353 352 350 348 346 344 342 340 338 336 334 332 330 329 328 327 326 325 323 322 321 320 318 316 314